| time (UTC) | temp C | wind direction | speed KPH | gust KPH | rain 1hr cm | rain 24hr cm | rain mn cm | humidity % | barometer mb |
| 20260510061042 | 23 | 185 | 0.0 | 0.0 | 0.00 | 0.00 | 0.00 | 78 | 1011.5 |
| 20260510060538 | 23 | 198 | 0.0 | 1.6 | 0.00 | 0.00 | 0.00 | 78 | 1011.2 |
| 20260510060035 | 23 | 198 | 0.0 | 3.2 | 0.00 | 0.00 | 0.00 | 78 | 1011.2 |
| 20260510055531 | 23 | 174 | 0.0 | 0.0 | 0.00 | 0.00 | 0.00 | 78 | 1011.2 |
| 20260510055029 | 23 | 198 | 0.0 | 1.6 | 0.00 | 0.00 | 0.00 | 77 | 1011.2 |
| 20260510054525 | 24 | 201 | 0.0 | 1.6 | 0.00 | 0.00 | 0.00 | 76 | 1010.8 |
| 20260510054020 | 24 | 186 | 0.0 | 1.6 | 0.00 | 0.00 | 0.00 | 75 | 1010.8 |
| 20260510053515 | 24 | 182 | 1.6 | 8.0 | 0.00 | 0.00 | 0.00 | 73 | 1010.8 |
| 20260510053012 | 25 | 193 | 1.6 | 1.6 | 0.00 | 0.00 | 0.00 | 73 | 1010.8 |
| 20260510052508 | 25 | 162 | 3.2 | 8.0 | 0.00 | 0.00 | 0.00 | 72 | 1010.5 |
| 20260510052004 | 25 | 202 | 3.2 | 3.2 | 0.00 | 0.00 | 0.00 | 72 | 1010.5 |
| 20260510051500 | 25 | 186 | 3.2 | 3.2 | 0.00 | 0.00 | 0.00 | 71 | 1010.5 |
| 20260510050956 | 25 | 172 | 4.8 | 4.8 | 0.00 | 0.00 | 0.00 | 70 | 1010.5 |
| 20260510050454 | 25 | 192 | 1.6 | 3.2 | 0.00 | 0.00 | 0.00 | 70 | 1010.8 |
| 20260510045950 | 25 | 185 | 3.2 | 8.0 | 0.00 | 0.00 | 0.00 | 70 | 1010.5 |
| 20260510045448 | 25 | 230 | 3.2 | 4.8 | 0.00 | 0.00 | 0.00 | 70 | 1010.5 |
| 20260510044944 | 25 | 183 | 1.6 | 3.2 | 0.00 | 0.00 | 0.00 | 69 | 1010.5 |
| 20260510044441 | 25 | 182 | 1.6 | 4.8 | 0.00 | 0.00 | 0.00 | 69 | 1010.5 |
| 20260510043938 | 25 | 203 | 4.8 | 4.8 | 0.00 | 0.00 | 0.00 | 68 | 1010.5 |
| 20260510043434 | 25 | 200 | 3.2 | 9.7 | 0.00 | 0.00 | 0.00 | 67 | 1010.5 |
| 20260510042932 | 25 | 216 | 4.8 | 4.8 | 0.00 | 0.00 | 0.00 | 66 | 1010.5 |
| 20260510042428 | 25 | 193 | 1.6 | 9.7 | 0.00 | 0.00 | 0.00 | 66 | 1010.8 |
| 20260510041924 | 25 | 172 | 4.8 | 4.8 | 0.00 | 0.00 | 0.00 | 65 | 1010.8 |
| 20260510041421 | 25 | 188 | 0.0 | 3.2 | 0.00 | 0.00 | 0.00 | 65 | 1010.8 |
| 20260510040919 | 25 | 166 | 1.6 | 3.2 | 0.00 | 0.00 | 0.00 | 65 | 1010.8 |
| 20260510040415 | 25 | 168 | 1.6 | 1.6 | 0.00 | 0.00 | 0.00 | 65 | 1010.8 |
| 20260510035911 | 25 | 205 | 1.6 | 3.2 | 0.00 | 0.00 | 0.00 | 65 | 1010.5 |
| 20260510035408 | 25 | 199 | 3.2 | 4.8 | 0.00 | 0.00 | 0.00 | 66 | 1011.2 |
| 20260510034902 | 25 | 164 | 1.6 | 4.8 | 0.00 | 0.00 | 0.00 | 67 | 1010.8 |
| 20260510034401 | 25 | 196 | 1.6 | 1.6 | 0.00 | 0.00 | 0.00 | 68 | 1011.2 |
| 20260510033857 | 25 | 192 | 0.0 | 1.6 | 0.00 | 0.00 | 0.00 | 68 | 1011.2 |
| 20260510033353 | 25 | 202 | 0.0 | 1.6 | 0.00 | 0.00 | 0.00 | 68 | 1011.2 |
| 20260510032850 | 26 | 203 | 0.0 | 3.2 | 0.00 | 0.00 | 0.00 | 68 | 1011.2 |
| 20260510032347 | 25 | 198 | 1.6 | 1.6 | 0.00 | 0.00 | 0.00 | 68 | 1011.2 |
| 20260510031842 | 26 | 186 | 0.0 | 3.2 | 0.00 | 0.00 | 0.00 | 68 | 1011.2 |
| 20260510031338 | 26 | 174 | 0.0 | 4.8 | 0.00 | 0.00 | 0.00 | 68 | 1011.2 |
| 20260510030838 | 26 | 84 | 1.6 | 3.2 | 0.00 | 0.00 | 0.00 | 66 | 1010.8 |
| 20260510030334 | 26 | 140 | 3.2 | 4.8 | 0.00 | 0.00 | 0.00 | 66 | 1010.8 |
| 20260510025832 | 25 | 171 | 1.6 | 4.8 | 0.00 | 0.00 | 0.00 | 65 | 1010.8 |
| 20260510025329 | 26 | 195 | 0.0 | 1.6 | 0.00 | 0.00 | 0.00 | 66 | 1010.8 |
| 20260510024826 | 26 | 120 | 1.6 | 1.6 | 0.00 | 0.00 | 0.00 | 65 | 1010.8 |
| 20260510024323 | 26 | 185 | 0.0 | 1.6 | 0.00 | 0.00 | 0.00 | 64 | 1010.8 |
| 20260510023819 | 26 | 185 | 0.0 | 0.0 | 0.00 | 0.00 | 0.00 | 63 | 1010.5 |
| 20260510023315 | 26 | 194 | 0.0 | 0.0 | 0.00 | 0.00 | 0.00 | 62 | 1010.5 |
| 20260510022813 | 26 | 183 | 0.0 | 1.6 | 0.00 | 0.00 | 0.00 | 61 | 1010.8 |
| 20260510022312 | 26 | 185 | 0.0 | 1.6 | 0.00 | 0.00 | 0.00 | 60 | 1010.2 |
| 20260510021811 | 26 | 185 | 0.0 | 1.6 | 0.00 | 0.00 | 0.00 | 60 | 1010.5 |
| 20260510021309 | 26 | 179 | 0.0 | 1.6 | 0.00 | 0.00 | 0.00 | 60 | 1010.2 |
| 20260510020805 | 26 | 180 | 0.0 | 1.6 | 0.00 | 0.00 | 0.00 | 60 | 1010.5 |
| 20260510020305 | 27 | 193 | 0.0 | 1.6 | 0.00 | 0.00 | 0.00 | 59 | 1010.2 |
| 20260510015802 | 27 | 179 | 0.0 | 1.6 | 0.00 | 0.00 | 0.00 | 58 | 1010.2 |
| 20260510015258 | 27 | 186 | 0.0 | 1.6 | 0.00 | 0.00 | 0.00 | 58 | 1010.2 |
| 20260510014753 | 27 | 186 | 1.6 | 3.2 | 0.00 | 0.00 | 0.00 | 58 | 1010.2 |
| 20260510014250 | 27 | 212 | 0.0 | 1.6 | 0.00 | 0.00 | 0.00 | 58 | 1010.2 |
| 20260510013746 | 27 | 187 | 0.0 | 1.6 | 0.00 | 0.00 | 0.00 | 57 | 1009.8 |
| 20260510013242 | 28 | 176 | 0.0 | 1.6 | 0.00 | 0.00 | 0.00 | 57 | 1009.8 |
| 20260510012737 | 28 | 172 | 1.6 | 4.8 | 0.00 | 0.00 | 0.00 | 56 | 1009.4 |
| 20260510012232 | 28 | 179 | 1.6 | 3.2 | 0.00 | 0.00 | 0.00 | 56 | 1009.8 |
| 20260510011732 | 28 | 178 | 0.0 | 3.2 | 0.00 | 0.00 | 0.00 | 55 | 1009.8 |
| 20260510011228 | 28 | 173 | 0.0 | 1.6 | 0.00 | 0.00 | 0.00 | 55 | 1009.4 |
| 20260510010725 | 28 | 151 | 0.0 | 1.6 | 0.00 | 0.00 | 0.00 | 55 | 1009.4 |
| 20260510010221 | 29 | 167 | 0.0 | 3.2 | 0.00 | 0.00 | 0.00 | 54 | 1009.4 |
| 20260510005718 | 29 | 179 | 0.0 | 1.6 | 0.00 | 0.00 | 0.00 | 54 | 1009.4 |
| 20260510005214 | 30 | 158 | 1.6 | 1.6 | 0.00 | 0.00 | 0.00 | 53 | 1009.4 |
| 20260510004712 | 30 | 184 | 0.0 | 3.2 | 0.00 | 0.00 | 0.00 | 52 | 1009.8 |
| 20260510004210 | 30 | 198 | 1.6 | 1.6 | 0.00 | 0.00 | 0.00 | 52 | 1009.4 |
| 20260510003708 | 31 | 179 | 0.0 | 1.6 | 0.00 | 0.00 | 0.00 | 51 | 1009.4 |
| 20260510003203 | 31 | 168 | 0.0 | 3.2 | 0.00 | 0.00 | 0.00 | 51 | 1009.4 |
| 20260510002657 | 31 | 181 | 0.0 | 1.6 | 0.00 | 0.00 | 0.00 | 50 | 1009.4 |
| 20260510002155 | 31 | 170 | 0.0 | 3.2 | 0.00 | 0.00 | 0.00 | 49 | 1009.4 |
| 20260510001652 | 31 | 208 | 1.6 | 1.6 | 0.00 | 0.00 | 0.00 | 47 | 1009.4 |
| 20260510001151 | 32 | 169 | 0.0 | 1.6 | 0.00 | 0.00 | 0.00 | 48 | 1009.4 |
| 20260510000650 | 32 | 187 | 1.6 | 3.2 | 0.00 | 0.00 | 0.00 | 46 | 1009.4 |
| 20260510000149 | 32 | 186 | 1.6 | 1.6 | 0.00 | 0.00 | 0.00 | 46 | 1009.4 |
| 20260509235645 | 32 | 187 | 0.0 | 3.2 | 0.00 | 0.00 | 0.00 | 48 | 1009.4 |
| 20260509235141 | 32 | 201 | 3.2 | 3.2 | 0.00 | 0.00 | 0.00 | 45 | 1009.4 |
| 20260509234637 | 32 | 182 | 1.6 | 3.2 | 0.00 | 0.00 | 0.00 | 46 | 1009.4 |
| 20260509234135 | 32 | 181 | 0.0 | 1.6 | 0.00 | 0.00 | 0.00 | 45 | 1009.4 |
| 20260509233633 | 32 | 187 | 1.6 | 3.2 | 0.00 | 0.00 | 0.00 | 45 | 1009.4 |
| 20260509233130 | 33 | 182 | 3.2 | 3.2 | 0.00 | 0.00 | 0.00 | 45 | 1009.4 |
| 20260509232626 | 33 | 196 | 0.0 | 3.2 | 0.00 | 0.00 | 0.00 | 45 | 1009.4 |
| 20260509232123 | 33 | 190 | 1.6 | 1.6 | 0.00 | 0.00 | 0.00 | 46 | 1009.4 |
| 20260509231619 | 33 | 186 | 0.0 | 1.6 | 0.00 | 0.00 | 0.00 | 48 | 1009.8 |
| 20260509231117 | 33 | 218 | 3.2 | 4.8 | 0.00 | 0.00 | 0.00 | 46 | 1009.4 |
| 20260509230614 | 33 | 207 | 0.0 | 3.2 | 0.00 | 0.00 | 0.00 | 45 | 1009.4 |
| 20260509230111 | 33 | 220 | 1.6 | 3.2 | 0.00 | 0.00 | 0.00 | 44 | 1009.4 |
| 20260509225607 | 33 | 214 | 0.0 | 3.2 | 0.00 | 0.00 | 0.00 | 45 | 1009.4 |
| 20260509225102 | 33 | 189 | 0.0 | 4.8 | 0.00 | 0.00 | 0.00 | 43 | 1009.4 |
| 20260509224558 | 33 | 222 | 1.6 | 4.8 | 0.00 | 0.00 | 0.00 | 42 | 1009.4 |
| 20260509224055 | 33 | 188 | 0.0 | 3.2 | 0.00 | 0.00 | 0.00 | 42 | 1009.8 |
| 20260509223552 | 33 | 149 | 0.0 | 1.6 | 0.00 | 0.00 | 0.00 | 43 | 1009.4 |
| 20260509223050 | 33 | 179 | 0.0 | 1.6 | 0.00 | 0.00 | 0.00 | 42 | 1009.4 |
| 20260509222545 | 33 | 210 | 4.8 | 4.8 | 0.00 | 0.00 | 0.00 | 42 | 1009.4 |
| 20260509222042 | 33 | 185 | 0.0 | 3.2 | 0.00 | 0.00 | 0.00 | 44 | 1009.8 |
| 20260509221537 | 33 | 221 | 1.6 | 3.2 | 0.00 | 0.00 | 0.00 | 43 | 1009.4 |
| 20260509221034 | 33 | 164 | 1.6 | 4.8 | 0.00 | 0.00 | 0.00 | 41 | 1009.4 |
| 20260509220530 | 33 | 184 | 1.6 | 4.8 | 0.00 | 0.00 | 0.00 | 40 | 1009.8 |
| 20260509220026 | 33 | 171 | 1.6 | 3.2 | 0.00 | 0.00 | 0.00 | 41 | 1009.4 |
| 20260509215521 | 33 | 242 | 1.6 | 3.2 | 0.00 | 0.00 | 0.00 | 40 | 1009.4 |
| 20260509215019 | 33 | 198 | 1.6 | 1.6 | 0.00 | 0.00 | 0.00 | 38 | 1009.4 |
| 20260509214516 | 33 | 211 | 1.6 | 1.6 | 0.00 | 0.00 | 0.00 | 40 | 1009.8 |
| 20260509214013 | 33 | 194 | 0.0 | 1.6 | 0.00 | 0.00 | 0.00 | 40 | 1009.8 |
| 20260509213509 | 33 | 189 | 0.0 | 3.2 | 0.00 | 0.00 | 0.00 | 41 | 1009.8 |
| 20260509213006 | 32 | 197 | 0.0 | 4.8 | 0.00 | 0.00 | 0.00 | 42 | 1010.2 |
| 20260509212503 | 32 | 233 | 0.0 | 3.2 | 0.00 | 0.00 | 0.00 | 40 | 1009.8 |
| 20260509212000 | 32 | 206 | 3.2 | 3.2 | 0.00 | 0.00 | 0.00 | 43 | 1010.2 |
| 20260509211455 | 32 | 85 | 1.6 | 4.8 | 0.00 | 0.00 | 0.00 | 41 | 1010.2 |
| 20260509210952 | 32 | 19 | 4.8 | 8.0 | 0.00 | 0.00 | 0.00 | 41 | 1010.2 |
| 20260509210449 | 32 | 154 | 1.6 | 4.8 | 0.00 | 0.00 | 0.00 | 44 | 1010.2 |
| 20260509205944 | 32 | 149 | 1.6 | 8.0 | 0.00 | 0.00 | 0.00 | 43 | 1010.5 |
| 20260509205439 | 32 | 178 | 1.6 | 3.2 | 0.00 | 0.00 | 0.00 | 43 | 1010.5 |
| 20260509204935 | 32 | 120 | 3.2 | 4.8 | 0.00 | 0.00 | 0.00 | 43 | 1010.5 |
| 20260509204432 | 32 | 166 | 6.4 | 9.7 | 0.00 | 0.00 | 0.00 | 42 | 1010.2 |
| 20260509203929 | 32 | 135 | 3.2 | 8.0 | 0.00 | 0.00 | 0.00 | 43 | 1010.5 |
| 20260509203424 | 32 | 350 | 6.4 | 9.7 | 0.00 | 0.00 | 0.00 | 42 | 1010.8 |
| 20260509202922 | 32 | 234 | 1.6 | 3.2 | 0.00 | 0.00 | 0.00 | 45 | 1010.5 |
| 20260509202418 | 32 | 287 | 1.6 | 4.8 | 0.00 | 0.00 | 0.00 | 46 | 1010.8 |
| 20260509201913 | 32 | 278 | 3.2 | 8.0 | 0.00 | 0.00 | 0.00 | 48 | 1010.8 |
| 20260509201408 | 32 | 307 | 8.0 | 11.3 | 0.00 | 0.00 | 0.00 | 46 | 1010.8 |
| 20260509200905 | 32 | 276 | 1.6 | 4.8 | 0.00 | 0.00 | 0.00 | 49 | 1010.8 |
| 20260509200359 | 31 | 109 | 1.6 | 3.2 | 0.00 | 0.00 | 0.00 | 49 | 1011.2 |
| 20260509195857 | 32 | 13 | 1.6 | 8.0 | 0.00 | 0.00 | 0.00 | 49 | 1011.2 |
| 20260509195357 | 32 | 29 | 4.8 | 8.0 | 0.00 | 0.00 | 0.00 | 47 | 1011.2 |
| 20260509194856 | 31 | 176 | 0.0 | 8.0 | 0.00 | 0.00 | 0.00 | 51 | 1011.2 |
| 20260509194354 | 32 | 213 | 0.0 | 3.2 | 0.00 | 0.00 | 0.00 | 51 | 1011.5 |
| 20260509193850 | 32 | 204 | 0.0 | 4.8 | 0.00 | 0.00 | 0.00 | 52 | 1011.2 |
| 20260509193349 | 31 | 20 | 1.6 | 9.7 | 0.00 | 0.00 | 0.00 | 51 | 1011.2 |
| 20260509192846 | 31 | 216 | 1.6 | 4.8 | 0.00 | 0.00 | 0.00 | 51 | 1011.5 |
| 20260509192342 | 31 | 10 | 4.8 | 4.8 | 0.00 | 0.00 | 0.00 | 53 | 1011.5 |
| 20260509191837 | 31 | 300 | 3.2 | 11.3 | 0.00 | 0.00 | 0.00 | 51 | 1011.2 |
| 20260509191333 | 31 | 216 | 1.6 | 3.2 | 0.00 | 0.00 | 0.00 | 52 | 1011.5 |
| 20260509190829 | 31 | 177 | 1.6 | 3.2 | 0.00 | 0.00 | 0.00 | 52 | 1011.5 |
| 20260509190326 | 31 | 235 | 1.6 | 1.6 | 0.00 | 0.00 | 0.00 | 50 | 1011.9 |
| 20260509185824 | 31 | 213 | 3.2 | 8.0 | 0.00 | 0.00 | 0.00 | 51 | 1011.2 |
| 20260509185320 | 31 | 216 | 0.0 | 4.8 | 0.00 | 0.00 | 0.00 | 48 | 1011.5 |
| 20260509184818 | 31 | 272 | 1.6 | 3.2 | 0.00 | 0.00 | 0.00 | 52 | 1011.5 |
| 20260509184315 | 31 | 247 | 3.2 | 3.2 | 0.00 | 0.00 | 0.00 | 50 | 1011.5 |
| 20260509183811 | 31 | 248 | 1.6 | 4.8 | 0.00 | 0.00 | 0.00 | 55 | 1011.9 |
| 20260509183306 | 30 | 29 | 3.2 | 4.8 | 0.00 | 0.00 | 0.00 | 51 | 1011.9 |
| 20260509182802 | 30 | 199 | 0.0 | 3.2 | 0.00 | 0.00 | 0.00 | 55 | 1011.9 |
| 20260509182300 | 30 | 209 | 1.6 | 4.8 | 0.00 | 0.00 | 0.00 | 52 | 1012.2 |
| 20260509181757 | 30 | 234 | 1.6 | 3.2 | 0.00 | 0.00 | 0.00 | 55 | 1012.2 |
| 20260509181254 | 30 | 220 | 1.6 | 4.8 | 0.00 | 0.00 | 0.00 | 53 | 1012.2 |
| 20260509180751 | 30 | 260 | 1.6 | 3.2 | 0.00 | 0.00 | 0.00 | 54 | 1012.2 |
| 20260509180248 | 30 | 335 | 1.6 | 4.8 | 0.00 | 0.00 | 0.00 | 56 | 1012.2 |
| 20260509175744 | 30 | 212 | 1.6 | 4.8 | 0.00 | 0.00 | 0.00 | 52 | 1012.2 |
| 20260509175241 | 30 | 228 | 3.2 | 4.8 | 0.00 | 0.00 | 0.00 | 54 | 1012.2 |
| 20260509174737 | 30 | 222 | 0.0 | 8.0 | 0.00 | 0.00 | 0.00 | 56 | 1012.2 |
| 20260509174232 | 30 | 271 | 3.2 | 3.2 | 0.00 | 0.00 | 0.00 | 56 | 1012.2 |
| 20260509173728 | 30 | 37 | 6.4 | 8.0 | 0.00 | 0.00 | 0.00 | 55 | 1012.5 |
| 20260509173224 | 30 | 182 | 1.6 | 3.2 | 0.00 | 0.00 | 0.00 | 56 | 1012.5 |
| 20260509172721 | 29 | 237 | 1.6 | 8.0 | 0.00 | 0.00 | 0.00 | 56 | 1012.5 |
| 20260509172217 | 30 | 305 | 3.2 | 8.0 | 0.00 | 0.00 | 0.00 | 55 | 1012.2 |
| 20260509171712 | 29 | 210 | 1.6 | 3.2 | 0.00 | 0.00 | 0.00 | 59 | 1012.5 |
| 20260509171209 | 29 | 334 | 4.8 | 8.0 | 0.00 | 0.00 | 0.00 | 57 | 1012.5 |
| 20260509170706 | 29 | 130 | 3.2 | 9.7 | 0.00 | 0.00 | 0.00 | 58 | 1012.5 |
| 20260509170202 | 28 | 280 | 3.2 | 4.8 | 0.00 | 0.00 | 0.00 | 61 | 1012.9 |
| 20260509165700 | 29 | 350 | 3.2 | 8.0 | 0.00 | 0.00 | 0.00 | 60 | 1012.9 |
| 20260509165156 | 28 | 263 | 3.2 | 8.0 | 0.00 | 0.00 | 0.00 | 61 | 1012.9 |
| 20260509164652 | 28 | 180 | 3.2 | 3.2 | 0.00 | 0.00 | 0.00 | 63 | 1012.9 |
| 20260509164148 | 28 | 74 | 4.8 | 9.7 | 0.00 | 0.00 | 0.00 | 63 | 1012.9 |
| 20260509163646 | 28 | 336 | 4.8 | 4.8 | 0.00 | 0.00 | 0.00 | 62 | 1012.9 |
| 20260509163141 | 28 | 265 | 4.8 | 4.8 | 0.00 | 0.00 | 0.00 | 64 | 1012.9 |
| 20260509162639 | 27 | 251 | 4.8 | 8.0 | 0.00 | 0.00 | 0.00 | 64 | 1012.9 |
| 20260509162134 | 27 | 291 | 6.4 | 9.7 | 0.00 | 0.00 | 0.00 | 63 | 1012.9 |
| 20260509161631 | 27 | 244 | 0.0 | 9.7 | 0.00 | 0.00 | 0.00 | 66 | 1012.9 |
| 20260509161126 | 27 | 287 | 8.0 | 9.7 | 0.00 | 0.00 | 0.00 | 63 | 1012.9 |
| 20260509160622 | 27 | 300 | 8.0 | 9.7 | 0.00 | 0.00 | 0.00 | 66 | 1012.9 |
| 20260509160118 | 27 | 222 | 4.8 | 9.7 | 0.00 | 0.00 | 0.00 | 66 | 1012.9 |
| 20260509155614 | 27 | 299 | 4.8 | 9.7 | 0.00 | 0.00 | 0.00 | 65 | 1012.9 |
| 20260509155110 | 27 | 230 | 4.8 | 9.7 | 0.00 | 0.00 | 0.00 | 67 | 1012.9 |
| 20260509154606 | 26 | 304 | 6.4 | 11.3 | 0.00 | 0.00 | 0.00 | 65 | 1012.9 |
| 20260509154104 | 26 | 19 | 4.8 | 9.7 | 0.00 | 0.00 | 0.00 | 68 | 1012.9 |
| 20260509153601 | 26 | 92 | 3.2 | 4.8 | 0.00 | 0.00 | 0.00 | 67 | 1012.9 |
| 20260509153057 | 26 | 354 | 0.0 | 8.0 | 0.00 | 0.00 | 0.00 | 69 | 1012.5 |
| 20260509152553 | 26 | 310 | 9.7 | 11.3 | 0.00 | 0.00 | 0.00 | 68 | 1012.9 |
| 20260509152051 | 26 | 281 | 3.2 | 8.0 | 0.00 | 0.00 | 0.00 | 70 | 1012.5 |
| 20260509151546 | 26 | 2 | 4.8 | 4.8 | 0.00 | 0.00 | 0.00 | 70 | 1012.5 |
| 20260509151044 | 25 | 192 | 3.2 | 4.8 | 0.00 | 0.00 | 0.00 | 72 | 1012.9 |
| 20260509150542 | 25 | 237 | 3.2 | 4.8 | 0.00 | 0.00 | 0.00 | 72 | 1012.5 |
| 20260509150041 | 25 | 324 | 4.8 | 8.0 | 0.00 | 0.00 | 0.00 | 73 | 1012.9 |
| 20260509145536 | 25 | 230 | 4.8 | 8.0 | 0.00 | 0.00 | 0.00 | 72 | 1012.5 |
| 20260509145031 | 25 | 41 | 3.2 | 8.0 | 0.00 | 0.00 | 0.00 | 70 | 1012.5 |
| 20260509144528 | 25 | 4 | 4.8 | 8.0 | 0.00 | 0.00 | 0.00 | 73 | 1012.5 |
| 20260509144025 | 25 | 295 | 4.8 | 8.0 | 0.00 | 0.00 | 0.00 | 73 | 1012.5 |
| 20260509143522 | 25 | 24 | 4.8 | 11.3 | 0.00 | 0.00 | 0.00 | 72 | 1012.9 |
| 20260509143020 | 25 | 28 | 4.8 | 8.0 | 0.00 | 0.00 | 0.00 | 73 | 1012.5 |
| 20260509142515 | 25 | 306 | 3.2 | 11.3 | 0.00 | 0.00 | 0.00 | 76 | 1012.9 |
| 20260509142011 | 24 | 68 | 3.2 | 4.8 | 0.00 | 0.00 | 0.00 | 77 | 1012.9 |
| 20260509141508 | 23 | 89 | 1.6 | 4.8 | 0.00 | 0.00 | 0.00 | 80 | 1012.9 |
| 20260509141004 | 23 | 319 | 4.8 | 8.0 | 0.00 | 0.00 | 0.00 | 81 | 1012.9 |
| 20260509140501 | 22 | 228 | 3.2 | 4.8 | 0.00 | 0.00 | 0.00 | 83 | 1012.9 |
| 20260509135959 | 22 | 1 | 4.8 | 4.8 | 0.00 | 0.00 | 0.00 | 83 | 1012.9 |
| 20260509135456 | 22 | 314 | 4.8 | 12.9 | 0.00 | 0.00 | 0.00 | 83 | 1012.9 |
| 20260509134953 | 22 | 198 | 3.2 | 8.0 | 0.00 | 0.00 | 0.00 | 84 | 1013.2 |
| 20260509134451 | 22 | 293 | 4.8 | 11.3 | 0.00 | 0.00 | 0.00 | 84 | 1012.9 |
| 20260509133948 | 22 | 242 | 4.8 | 8.0 | 0.00 | 0.00 | 0.00 | 84 | 1012.9 |
| 20260509133444 | 22 | 324 | 6.4 | 12.9 | 0.00 | 0.00 | 0.00 | 83 | 1012.9 |
| 20260509132943 | 22 | 249 | 3.2 | 9.7 | 0.00 | 0.00 | 0.00 | 84 | 1012.9 |
| 20260509132441 | 22 | 228 | 4.8 | 4.8 | 0.00 | 0.00 | 0.00 | 84 | 1012.9 |
| 20260509131937 | 21 | 312 | 1.6 | 4.8 | 0.00 | 0.00 | 0.00 | 84 | 1012.9 |
| 20260509131435 | 21 | 246 | 4.8 | 12.9 | 0.00 | 0.00 | 0.00 | 85 | 1012.9 |
| 20260509130931 | 21 | 203 | 3.2 | 9.7 | 0.00 | 0.00 | 0.00 | 85 | 1012.9 |
| 20260509130426 | 20 | 166 | 3.2 | 8.0 | 0.00 | 0.00 | 0.00 | 85 | 1012.9 |
| 20260509125924 | 20 | 304 | 3.2 | 4.8 | 0.00 | 0.00 | 0.00 | 86 | 1012.9 |
| 20260509125420 | 20 | 195 | 1.6 | 4.8 | 0.00 | 0.00 | 0.00 | 86 | 1012.9 |
| 20260509124916 | 20 | 304 | 3.2 | 8.0 | 0.00 | 0.00 | 0.00 | 87 | 1012.9 |
| 20260509124414 | 20 | 257 | 1.6 | 3.2 | 0.00 | 0.00 | 0.00 | 87 | 1012.9 |
| 20260509123911 | 20 | 252 | 3.2 | 3.2 | 0.00 | 0.00 | 0.00 | 87 | 1012.9 |
| 20260509123408 | 20 | 205 | 1.6 | 3.2 | 0.00 | 0.00 | 0.00 | 88 | 1012.5 |
| 20260509122904 | 20 | 194 | 0.0 | 1.6 | 0.00 | 0.00 | 0.00 | 89 | 1012.5 |
| 20260509122401 | 20 | 237 | 1.6 | 3.2 | 0.00 | 0.00 | 0.00 | 89 | 1012.5 |
| 20260509121858 | 19 | 222 | 4.8 | 4.8 | 0.00 | 0.00 | 0.00 | 90 | 1012.5 |
| 20260509121355 | 19 | 219 | 1.6 | 3.2 | 0.00 | 0.00 | 0.00 | 90 | 1012.5 |
| 20260509120853 | 18 | 193 | 1.6 | 3.2 | 0.00 | 0.00 | 0.00 | 90 | 1012.5 |
| 20260509120350 | 18 | 217 | 0.0 | 1.6 | 0.00 | 0.00 | 0.00 | 90 | 1012.5 |
| 20260509115848 | 18 | 192 | 0.0 | 1.6 | 0.00 | 0.00 | 0.00 | 89 | 1012.2 |
| 20260509115345 | 18 | 193 | 0.0 | 1.6 | 0.00 | 0.00 | 0.00 | 89 | 1012.5 |
| 20260509114843 | 18 | 194 | 0.0 | 0.0 | 0.00 | 0.00 | 0.00 | 88 | 1012.5 |
| 20260509114342 | 19 | 180 | 1.6 | 1.6 | 0.00 | 0.00 | 0.00 | 88 | 1012.2 |
| 20260509113840 | 19 | 183 | 0.0 | 1.6 | 0.00 | 0.00 | 0.00 | 87 | 1011.9 |
| 20260509113337 | 19 | 184 | 1.6 | 3.2 | 0.00 | 0.00 | 0.00 | 88 | 1011.9 |
| 20260509112834 | 19 | 181 | 0.0 | 1.6 | 0.00 | 0.00 | 0.00 | 87 | 1011.9 |
| 20260509112331 | 19 | 192 | 0.0 | 0.0 | 0.00 | 0.00 | 0.00 | 87 | 1011.5 |
| 20260509111828 | 19 | 198 | 0.0 | 0.0 | 0.00 | 0.00 | 0.00 | 86 | 1011.5 |
| 20260509111325 | 20 | 188 | 1.6 | 1.6 | 0.00 | 0.00 | 0.00 | 85 | 1011.2 |
| 20260509110823 | 20 | 188 | 0.0 | 0.0 | 0.00 | 0.00 | 0.00 | 84 | 1011.2 |
| 20260509110319 | 20 | 194 | 0.0 | 4.8 | 0.00 | 0.00 | 0.00 | 83 | 1011.5 |
| 20260509105817 | 20 | 158 | 3.2 | 4.8 | 0.00 | 0.00 | 0.00 | 83 | 1011.5 |
| 20260509105315 | 20 | 264 | 3.2 | 8.0 | 0.00 | 0.00 | 0.00 | 82 | 1011.5 |
| 20260509104811 | 20 | 195 | 1.6 | 8.0 | 0.00 | 0.00 | 0.00 | 81 | 1011.5 |
| 20260509104308 | 20 | 270 | 6.4 | 9.7 | 0.00 | 0.00 | 0.00 | 81 | 1011.2 |
| 20260509103806 | 20 | 194 | 1.6 | 9.7 | 0.00 | 0.00 | 0.00 | 80 | 1011.5 |
| 20260509103303 | 20 | 290 | 6.4 | 9.7 | 0.00 | 0.00 | 0.00 | 80 | 1011.5 |
| 20260509102801 | 20 | 276 | 3.2 | 9.7 | 0.00 | 0.00 | 0.00 | 78 | 1011.5 |
| 20260509102258 | 20 | 275 | 6.4 | 9.7 | 0.00 | 0.00 | 0.00 | 77 | 1011.5 |
| 20260509101754 | 20 | 283 | 3.2 | 12.9 | 0.00 | 0.00 | 0.00 | 77 | 1011.5 |
| 20260509101250 | 21 | 299 | 4.8 | 12.9 | 0.00 | 0.00 | 0.00 | 77 | 1011.5 |
| 20260509100748 | 20 | 282 | 3.2 | 11.3 | 0.00 | 0.00 | 0.00 | 81 | 1011.5 |
| 20260509100245 | 21 | 227 | 1.6 | 3.2 | 0.00 | 0.00 | 0.00 | 89 | 1011.5 |
| 20260509095741 | 21 | 234 | 1.6 | 8.0 | 0.00 | 0.00 | 0.00 | 89 | 1011.5 |
| 20260509095239 | 21 | 197 | 1.6 | 3.2 | 0.00 | 0.00 | 0.00 | 89 | 1011.2 |
| 20260509094736 | 21 | 261 | 3.2 | 12.9 | 0.00 | 0.00 | 0.00 | 89 | 1011.5 |
| 20260509094233 | 20 | 303 | 4.8 | 9.7 | 0.00 | 0.00 | 0.00 | 90 | 1010.5 |
| 20260509093731 | 20 | 301 | 4.8 | 17.7 | 0.00 | 0.00 | 0.00 | 89 | 1010.8 |
| 20260509093228 | 21 | 341 | 4.8 | 4.8 | 0.00 | 0.00 | 0.00 | 95 | 1009.4 |
| 20260509092726 | 21 | 201 | 1.6 | 8.0 | 0.00 | 0.00 | 0.00 | 95 | 1008.4 |
| 20260509092224 | 21 | 162 | 4.8 | 8.0 | 0.00 | 0.00 | 0.00 | 95 | 1008.4 |
| 20260509091722 | 21 | 205 | 8.0 | 9.7 | 0.00 | 0.00 | 0.00 | 95 | 1008.0 |
| 20260509091217 | 21 | 191 | 4.8 | 14.5 | 0.00 | 0.00 | 0.00 | 95 | 1008.4 |
| 20260509090715 | 21 | 234 | 4.8 | 8.0 | 0.00 | 0.00 | 0.00 | 95 | 1008.4 |
| 20260509090212 | 20 | 177 | 1.6 | 9.7 | 0.00 | 0.00 | 0.00 | 95 | 1008.4 |
| 20260509085710 | 20 | 195 | 1.6 | 9.7 | 0.00 | 0.00 | 0.00 | 95 | 1009.0 |
| 20260509085207 | 20 | 169 | 1.6 | 9.7 | 0.00 | 0.00 | 0.00 | 95 | 1008.7 |
| 20260509084703 | 20 | 164 | 1.6 | 8.0 | 0.00 | 0.00 | 0.00 | 95 | 1009.0 |
| 20260509084200 | 20 | 178 | 1.6 | 4.8 | 0.00 | 0.00 | 0.00 | 96 | 1009.0 |
| 20260509083658 | 20 | 204 | 4.8 | 9.7 | 0.00 | 0.00 | 0.00 | 96 | 1009.4 |
| 20260509083154 | 20 | 197 | 1.6 | 3.2 | 0.00 | 0.00 | 0.00 | 96 | 1009.4 |
| 20260509082651 | 20 | 146 | 4.8 | 8.0 | 0.00 | 0.00 | 0.00 | 95 | 1009.4 |
| 20260509082148 | 20 | 200 | 3.2 | 4.8 | 0.00 | 0.00 | 0.00 | 95 | 1009.8 |
| 20260509081645 | 20 | 177 | 4.8 | 11.3 | 0.00 | 0.00 | 0.00 | 95 | 1010.2 |
| 20260509081142 | 20 | 207 | 3.2 | 4.8 | 0.00 | 0.00 | 0.00 | 95 | 1010.5 |
| 20260509080640 | 20 | 185 | 3.2 | 8.0 | 0.00 | 0.00 | 0.00 | 95 | 1010.5 |
| 20260509080138 | 20 | 202 | 1.6 | 9.7 | 0.00 | 0.00 | 0.00 | 95 | 1010.8 |
| 20260509075636 | 20 | 169 | 3.2 | 8.0 | 0.00 | 0.00 | 0.00 | 95 | 1010.5 |
| 20260509075133 | 20 | 195 | 3.2 | 8.0 | 0.00 | 0.00 | 0.00 | 95 | 1010.2 |
| 20260509074630 | 20 | 183 | 6.4 | 8.0 | 0.00 | 0.00 | 0.00 | 95 | 1010.8 |
| 20260509074126 | 20 | 143 | 3.2 | 3.2 | 0.00 | 0.00 | 0.00 | 95 | 1011.2 |
| 20260509073623 | 20 | 174 | 3.2 | 4.8 | 0.00 | 0.00 | 0.00 | 95 | 1011.5 |
| 20260509073119 | 20 | 177 | 3.2 | 4.8 | 0.00 | 0.00 | 0.00 | 95 | 1011.5 |
| 20260509072616 | 20 | 193 | 1.6 | 4.8 | 0.00 | 0.00 | 0.00 | 95 | 1012.2 |
| 20260509072113 | 20 | 201 | 1.6 | 4.8 | 0.00 | 0.00 | 0.00 | 96 | 1012.5 |
| 20260509071610 | 20 | 194 | 1.6 | 1.6 | 0.00 | 0.00 | 0.00 | 96 | 1012.9 |
| 20260509071107 | 20 | 200 | 0.0 | 1.6 | 0.00 | 0.00 | 0.00 | 96 | 1013.2 |
| 20260509070604 | 20 | 181 | 1.6 | 4.8 | 0.00 | 0.00 | 0.00 | 96 | 1012.9 |
| 20260509070100 | 20 | 199 | 4.8 | 8.0 | 0.00 | 0.00 | 0.00 | 96 | 1013.9 |
| 20260509065556 | 20 | 276 | 4.8 | 4.8 | 0.00 | 0.00 | 0.00 | 97 | 1014.2 |
| 20260509065052 | 20 | 265 | 8.0 | 11.3 | 0.00 | 0.00 | 0.00 | 97 | 1014.2 |
| 20260509064550 | 20 | 294 | 3.2 | 3.2 | 0.00 | 0.00 | 0.00 | 97 | 1013.9 |
| 20260509064048 | 20 | 196 | 1.6 | 3.2 | 0.00 | 0.00 | 0.00 | 97 | 1013.9 |
| 20260509063543 | 20 | 220 | 1.6 | 1.6 | 0.00 | 0.00 | 0.00 | 97 | 1013.9 |
| 20260509063041 | 20 | 221 | 0.0 | 1.6 | 0.00 | 0.00 | 0.00 | 97 | 1013.6 |
| 20260509062538 | 20 | 206 | 1.6 | 3.2 | 0.00 | 0.00 | 0.00 | 97 | 1013.9 |
| 20260509062035 | 20 | 205 | 1.6 | 3.2 | 0.00 | 0.00 | 0.00 | 97 | 1013.6 |
| 20260509061532 | 20 | 232 | 1.6 | 1.6 | 0.00 | 0.00 | 0.00 | 97 | 1013.9 |